Погода в Калинине

Россия / Амурская область     49°23′21″N   129°17′02″E
темп.,
°C
ветер,
м/с
пор.,
м/с
влажн.,
%
обл.,
%
осадки,
мм/ч
давл.,
гПа
погр.,
м
18 мая, вт
вт1800:00+15ююв356214 0.0 99759
03:00+16зюз6124699 0.0 997326
06:00+13з4973100 0.0 999326
09:00+18сз3457100 0.0 999705
12:00+21з3544100 0.0 9991471
15:00+19сз6956100 0.3 999988
18:00+16ссз4772100 1.3 1000732
21:00+13всв3784100 1.5 1002321
19 мая, ср
ср1900:00+11всв2591100 2.4 1002166
03:00+10св119253 2.4 100210
06:00+11зюз11855 0.0 100346
09:00+15сз45651 0.0 1004815
12:00+18сз45475 0.0 10041423
15:00+19ссз2338100 0.0 10041989
18:00+18св22426 0.0 1003936
21:00+13в49505 0.0 1003134
20 мая, чт
чт2000:00+12вюв51459100 0.0 999270
03:00+12вюв4871100 0.4 998151
06:00+13ю31178100 0.2 998319
09:00+17сз7867100 0.2 10021109
12:00+18сз67455 0.0 10051399
15:00+20сз4535100 0.0 10051525
18:00+18с4541100 0.0 1006610
21:00+12ссв49515 0.0 1007139
21 мая, пт
пт2100:00+10вюв34575 0.0 100757
03:00+9вюв22587 0.0 100721
06:00+10вюв246111 0.0 100792
09:00+17в44455 0.0 1006439
12:00+22в33355 0.0 10061011
15:00+24св32344 0.0 10041137
18:00+22ссв46440 0.0 1003509
21:00+14ссв5115851 0.2 1005237
22 мая, сб
сб2200:00+12ссв2569100 0.0 1005107
03:00+10с227815 0.1 100416
06:00+12юв11725 0.1 100462
09:00+19юв455539 0.1 1003478
12:00+27ююв364092 0.0 10001374
15:00+32ююз692287 0.0 9973948
18:00+29ююз38354 0.0 997203
21:00+23ююв7144999 0.0 997313